Regional Weather Roundup
Issued by NWS

Home | Current Version | Previous Version | Text Only | Print | Product List | Glossary On
Versions: 1 2 3 4 5 6 7 8 9 10 11 12 13 14 15 16 17 18 19 20 21 22 23 24 25 26 27 28 29 30 31 32 33 34 35 36 37 38 39 40 41 42 43 44 45 46 47 48 49 50
000
ASUS43 KLOT 260009
RWRIL

ILLINOIS REGIONAL WEATHER ROUNDUP
NATIONAL WEATHER SERVICE CHICAGO/ROMEOVILLE IL
700 PM CDT THU AUG 25 2016

NOTE: "FAIR" INDICATES FEW OR NO CLOUDS BELOW 12,000 FEET WITH NO
SIGNIFICANT WEATHER AND/OR OBSTRUCTIONS TO VISIBILITY.

* THESE STATIONS ARE NOT UNDER NWS QUALITY CONTROL. THEY ALSO MAY NOT
  REPORT WEATHER SUCH AS PRECIPITATION OR FOG.

ILZ001-002-007-009-015-016-024-260100-
NORTHWEST ILLINOIS

CITY           SKY/WX    TMP DP  RH WIND       PRES   REMARKS
MOLINE         PTCLDY    77  61  57 NW7       30.06R
6HR MIN TEMP:  76; 6HR MAX TEMP:  81;

STERLING*      CLEAR     74  66  76 NW6       30.06S
SAVANNA*       MOCLDY    75  65  70 NW5       30.05F
$$

ILZ003-004-008-010-011-017-018-260100-
NORTH CENTRAL ILLINOIS

CITY           SKY/WX    TMP DP  RH WIND       PRES   REMARKS
ROCKFORD       CLOUDY    75  64  68 NW3       30.06S
6HR MIN TEMP:  75; 6HR MAX TEMP:  81;

FREEPORT*      CLOUDY    73  64  74 NW3       30.08R
ROCHELLE*      CLEAR     73  67  81 W6        30.06S
DE KALB*       CLOUDY    74  67  79 NW5       30.06S
$$

ILZ005-006-012>014-019>023-260100-
NORTHEAST ILLINOIS

CITY           SKY/WX    TMP DP  RH WIND       PRES   REMARKS
CHICAGO-OHARE  CLOUDY    78  64  61 NW9       30.03S HX  80
6HR MIN TEMP:  77; 6HR MAX TEMP:  85;

CHICAGO-MIDWAY CLOUDY    81  64  56 NW8       30.02S HX  82
6HR MIN TEMP:  79; 6HR MAX TEMP:  85;

AURORA         CLOUDY    76  67  73 NW3       30.04S
6HR MIN TEMP:  76; 6HR MAX TEMP:  83;

LANSING*       CLOUDY    79  69  72 NW5       30.02R HX  81
JOLIET*        MOCLDY    79  67  67 N5        30.04R HX  81
WAUKEGAN       CLOUDY    76  65  68 CALM      30.03S
6HR MIN TEMP:  76; 6HR MAX TEMP:  82;

DUPAGE AIRPORT CLOUDY    76  63  64 NW7       30.03S
6HR MIN TEMP:  76; 6HR MAX TEMP:  83;

KANKAKEE*      CLOUDY    74  73  94 CALM      30.04F
WHEELING       CLOUDY    77  62  59 NW6       30.04S
6HR MIN TEMP:  77; 6HR MAX TEMP:  84;

MORRIS*        PTCLDY    76  68  75 CALM      30.03R
ROMEOVILLE*    CLEAR     76  68  75 NW5       30.04R
NORTHERLY ISL    N/A     73  68  84 CALM        N/A
$$

LMZ740>746-260100-
SOUTHERN LAKE MICHIGAN

STATION/POSITION SKY/WX   TEMP    WIND        PRES    VSBY  WAVE
                          AIR SEA DIR/SP/G                  HT/PER
                          (F)     (DEG/KT/KT) (MB)    (MI)  (FT/S)
SOUTHERN BUOY              74 75  270/  2/  2 1016.1F         1/ 4
WILMETTE HARBOR            71 69  290/  2/  4   N/A           0
HARRISON CRIB              74      60/  3/  3   N/A
BURNHAM HARBOR             73      CALM  /  3   N/A
CALUMET HARBOR             74                 1016.1S
BURNS HARBOR               75      50/  9/  9 1016.9S
MICHIGAN CITY              74      30/  5/  6   N/A
MICHIGAN CITY 6N           74 74   60/  6/  6   N/A           1
ST. JOSEPH                 74 75   20/  4/  6 1016.5F         1/ 3
$$

ILZ025>027-034>036-040-047-049-050-058-095>099-260100-
WEST-CENTRAL ILLINOIS

CITY           SKY/WX    TMP DP  RH WIND       PRES   REMARKS
QUINCY         CLOUDY    79  74  84 N8        30.03F HX  82
GALESBURG*     CLOUDY    75  67  77 NW3       30.07R
MACOMB*        CLOUDY    77  72  84 N5        30.08R
JACKSONVILLE*  PTCLDY    79  74  86 N3        30.03S HX  83
PITTSFIELD*    MOCLDY    82  74  78 CALM      30.04F HX  87
$$

ILZ028>032-037-038-041>044-048-051>054-059>061-260100-
CENTRAL ILLINOIS

CITY           SKY/WX    TMP DP  RH WIND       PRES   REMARKS
PONTIAC        CLOUDY    77  75  95 CALM      30.05R
BLOOMINGTON    CLEAR     79  71  76 W7        30.06R HX  82
DECATUR        CLEAR     85  71  63 W6        30.03S HX  90
PEORIA         MOCLDY    79  74  84 N3        30.05R HX  82
6HR MIN TEMP:  79; 6HR MAX TEMP:  82;

LACON*         CLOUDY    77  67  72 N5        30.04R
LINCOLN*       CLEAR     82  74  77 CALM      30.04R HX  87
SPRINGFIELD    CLEAR     83  74  74 NW5       30.04R HX  89
6HR MIN TEMP:  83; 6HR MAX TEMP:  88;

TAYLORVILLE    CLEAR     84  74  72 CALM      30.03R HX  90
6HR MIN TEMP:  82; 6HR MAX TEMP:  87;

$$

ILZ033-039-045-046-055>057-062-063-260100-
EAST-CENTRAL ILLINOIS

CITY           SKY/WX    TMP DP  RH WIND       PRES   REMARKS
CHAMPAIGN      CLEAR     81  74  79 W5        30.04R HX  86
RANTOUL*       CLEAR     82  75  78 W5        30.04R HX  88
MATTOON        CLEAR     83  76  79 CALM      30.03S HX  91
PARIS*         PTCLDY    83  75  78 CALM      30.04S HX  90
$$

ILZ079-100>102-260100-
SOUTHWEST ILLINOIS

CITY           SKY/WX    TMP DP  RH WIND       PRES   REMARKS
ALTON          PTCLDY    84  73  70 SW6       30.02R HX  91
BELLEVILLE     CLEAR     87  75  66 S5        30.01R HX  97
CAHOKIA*       PTCLDY    89  71  55 S3        30.01S HX  95
SPARTA*        CLEAR     87  74  65 SW6       30.04R HX  94
$$

ILZ064>066-069>071-074>076-080>082-084>086-088>090-092>094-260100-
SOUTH-CENTRAL ILLINOIS

CITY           SKY/WX    TMP DP  RH WIND       PRES   REMARKS
CARBONDALE     CLEAR     83  72  69 S6        30.04R HX  88
6HR MIN TEMP:  83; 6HR MAX TEMP:  89;

CAIRO*         PTCLDY    83  78  84 CALM      30.03R HX  93
EFFINGHAM*     CLEAR     85  78  79 CALM      30.04S HX  97
MARION         PTCLDY    86  75  70 CALM      30.05S HX  95
MT. VERNON     CLEAR     86  72  62 S6        30.04R HX  92
CENTRALIA*     CLEAR     85  79  81 S5        30.02S HX  97
SALEM*         CLEAR     86  76  71 S3        30.03R HX  96
$$

ILZ067-068-072-073-078-083-087-091-260100-
SOUTHEAST ILLINOIS

CITY           SKY/WX    TMP DP  RH WIND       PRES   REMARKS
LAWRENCEVILLE  CLEAR     86  74  67 SW6       30.03S HX  94
FLORA*         CLEAR     85  77  75 S5        30.03R HX  95
FAIRFIELD*     CLEAR     84  75  73 CALM      30.03R HX  92
HARRISBURG*    MOCLDY    88  75  65 CALM      30.04S HX  97
ROBINSON*      CLEAR     82  76  84 SW3       30.03S HX  89
CARMI*         PTCLDY    86  76  71 CALM      30.03R HX  96
$$

ABBREVIATIONS USED IN REMARKS
   TC - TEMPERATURE IN CELSIUS
  WCI - WIND CHILL INDEX
   HX - HEAT INDEX
  VSB - VISIBILITY
$$





USA.gov is the U.S. government's official web portal to all federal, state and local government web resources and services.